Location: Central Falls
(41.8900°N, 71.3929°W)
Time: 21:52:33
(UTC+00:00)

BlueWalker 3 - Visible Passes

Search period start: 28 September 2023 00:00
Search period end: 08 October 2023 00:00
Orbit: 491 x 508 km, 53.2° (Epoch: 28 September)

Date Brightness Start Highest point End Pass type
(mag) Time Alt. Az. Time Alt. Az. Time Alt. Az.
28 Sep 4.2 08:59:17 12° NNW 09:01:51 20° NNE 09:04:48 10° ENE visible
29 Sep 4.1 08:38:46 16° NNW 08:40:18 20° NNE 08:43:15 10° ENE visible
30 Sep 4.1 08:18:20 20° N 08:18:43 20° NNE 08:21:40 10° ENE visible
30 Sep 2.1 09:53:50 10° NW 09:57:42 74° NE 10:01:33 10° ESE visible
01 Oct 4.5 07:58:00 19° NE 07:58:00 19° NE 08:00:05 10° ENE visible
01 Oct 2.1 09:32:38 13° NW 09:36:06 75° NE 09:39:58 10° ESE visible
02 Oct 5.1 07:37:46 13° ENE 07:37:46 13° ENE 07:38:29 10° ENE visible
02 Oct 2.0 09:12:26 26° NW 09:14:30 75° NE 09:18:21 10° ESE visible
03 Oct 2.0 08:52:22 62° NNW 08:52:53 75° NE 08:56:45 10° ESE visible
04 Oct 3.0 08:32:28 41° ESE 08:32:28 41° ESE 08:35:06 10° ESE visible
04 Oct 3.8 10:07:09 10° W 10:09:15 15° SW 10:11:28 10° SSW visible
05 Oct 4.5 08:12:43 15° ESE 08:12:43 15° ESE 08:13:28 10° ESE visible
05 Oct 3.7 09:47:25 15° WSW 09:47:37 15° SW 09:49:48 10° SSW visible
06 Oct 4.2 09:27:50 11° SSW 09:27:50 11° SSW 09:28:07 10° SSW visible
